Vorticity
9 9 9 9 9 9 9 9 10 10 10 10 11 11 11 12 12 12 12 12 11 10 10 9 9 9 9 9 9 10 10 11 11 11 11 11 11 10 10 9 9 9 8 8 8 8 8 7 7 8 8 9 9 9 9 9 9 9 8 8 8 8 8 8 8 8 8 7 7
9 9 9 9 10 10 10 11 11 11 12 12 12 12 12 13 12 11 11 11 10 9 9 8 8 9 9 10 10 11 11 12 12 11 11 11 10 10 9 9 9 8 8 8 8 8 7 7 7 8 8 9 9 9 9 10 9 9 8 8 8 8 8 8 8 8 8 8 8
9 10 10 11 11 11 12 12 12 12 12 12 13 12 12 12 11 10 10 9 8 8 8 8 9 9 10 10 11 12 12 12 11 11 10 10 9 9 9 8 8 8 8 8 8 8 8 7 8 8 9 9 10 10 9 10 9 9 8 9 8 8 8 8 8 8 8 8 8
10 11 11 12 12 12 13 12 12 12 12 12 12 12 11 10 10 9 9 8 8 9 9 9 10 10 11 11 12 12 12 11 11 10 10 9 9 9 9 8 8 8 8 8 8 8 8 8 8 9 9 10 9 9 8 8 9 9 9 8 7 7 8 8 9 9 8 7 8
12 12 12 13 13 12 12 12 12 11 11 11 11 10 10 9 9 9 8 9 9 10 10 10 11 11 12 12 12 12 11 11 11 10 9 9 9 9 9 9 9 8 8 8 8 8 9 9 9 9 10 9 9 8 8 9 10 10 9 8 8 8 9 9 9 8 8 7 7
12 12 12 12 12 11 11 11 11 10 10 10 10 9 9 9 9 9 9 10 10 10 11 11 11 12 12 12 12 12 11 11 10 10 10 9 9 9 9 9 9 9 9 9 9 10 10 10 10 10 9 9 9 8 9 9 10 9 8 8 9 9 9 10 9 9 8 7 6
12 12 11 11 11 10 10 10 10 10 9 9 9 9 9 9 10 10 11 10 11 11 12 12 12 12 12 12 12 12 11 11 10 10 10 10 9 9 9 9 9 9 9 9 10 10 10 10 10 9 9 9 9 9 9 10 9 9 9 10 10 9 9 10 10 9 7 5 5
11 11 10 10 10 10 9 9 9 9 9 9 9 9 10 10 11 11 11 11 12 12 12 12 12 12 12 12 12 12 11 11 11 10 10 10 10 10 10 9 10 10 10 10 10 10 10 10 10 9 9 9 9 9 9 10 10 9 9 9 9 9 9 9 9 8 7 6 7
10 10 10 9 10 10 9 9 9 9 9 10 10 10 11 11 12 12 12 13 12 12 12 12 12 12 12 12 12 12 11 11 11 10 10 10 10 10 10 10 10 10 10 10 10 9 9 9 9 9 9 9 9 9 9 9 10 10 9 9 9 9 9 9 9 9 9 10 11
10 10 10 10 10 10 9 9 10 10 10 10 11 11 12 12 13 13 13 13 12 12 12 13 12 12 12 12 12 11 11 11 10 10 10 10 10 10 10 10 9 9 9 9 9 9 9 9 9 9 9 9 9 9 9 8 9 9 8 8 8 9 9 10 10 11 11 12 13
10 10 10 10 10 10 9 10 10 11 11 11 12 12 13 13 13 13 13 12 12 13 13 13 12 12 12 12 11 11 11 10 10 10 10 10 10 10 9 9 9 9 9 9 9 8 8 8 8 9 9 9 9 9 9 8 8 7 8 8 9 9 10 10 11 11 12 13 13
10 10 10 10 10 10 10 10 11 11 12 12 12 13 13 13 13 13 13 13 13 13 12 12 12 12 11 11 11 11 10 10 10 10 10 10 9 9 9 9 9 9 9 8 8 8 8 8 9 9 9 9 9 9 9 9 9 10 10 10 10 10 10 10 11 12 12 12 12
10 10 10 9 10 10 11 11 12 12 12 12 13 13 13 13 13 13 12 13 12 12 12 12 11 11 11 11 10 10 10 10 10 10 10 9 9 9 9 9 9 9 9 8 8 9 9 9 9 9 10 10 10 10 10 10 11 11 11 11 11 11 11 11 11 12 12 12 12
10 10 10 10 10 11 11 12 12 12 12 12 12 12 12 12 12 12 12 12 12 12 11 11 11 11 11 10 10 10 10 10 9 9 9 9 9 9 9 9 9 9 9 9 9 9 10 10 10 10 10 10 11 11 11 11 11 12 12 11 12 12 12 12 11 12 12 12 13
9 10 10 10 11 11 12 12 12 12 12 12 12 12 12 12 12 12 12 12 11 11 11 10 10 10 10 10 9 9 9 9 9 9 9 9 9 9 9 9 9 9 10 9 10 10 11 11 11 11 11 11 11 11 12 12 12 12 12 12 12 12 12 12 11 12 12 12 12
10 10 11 11 11 11 12 12 12 12 12 12 12 12 12 12 12 11 11 11 11 10 10 10 10 9 9 9 9 8 8 8 8 8 9 9 9 9 9 9 10 10 10 10 10 10 10 11 11 11 11 11 11 12 12 12 12 12 12 12 12 11 11 11 11 11 11 11 11
10 11 11 11 11 11 11 11 12 12 12 12 12 12 12 11 11 11 11 10 10 10 9 9 9 9 8 8 8 8 8 8 8 9 9 9 9 9 10 10 10 10 10 10 10 9 10 10 10 11 11 11 11 12 12 12 12 12 12 11 11 11 10 10 10 10 9 9 9
11 11 11 11 11 11 11 11 12 12 12 12 11 11 11 11 11 10 10 10 9 9 9 8 8 8 8 8 8 8 8 9 9 9 9 9 9 9 9 9 9 9 9 9 9 9 9 9 10 10 11 11 11 11 11 12 11 11 11 10 10 10 9 9 9 9 9 8 8
10 10 11 11 11 11 11 11 11 11 11 11 11 10 10 10 10 9 9 9 9 8 8 8 8 8 8 8 9 9 9 9 9 9 9 9 9 9 9 9 9 9 9 9 9 9 9 9 10 10 10 11 11 11 11 11 11 10 10 10 9 9 9 9 9 8 8 8 8
10 11 11 11 11 11 11 11 11 11 11 10 10 10 10 9 9 9 8 8 8 8 8 8 8 9 9 9 9 9 9 9 9 9 9 8 8 8 8 8 8 8 9 9 9 9 10 10 10 11 11 11 11 11 11 11 10 10 9 9 9 9 9 9 8 8 8 8 8
11 11 11 11 11 11 11 11 10 10 10 10 9 9 9 8 8 8 8 8 8 8 9 9 9 9 9 9 9 9 9 8 8 8 8 8 8 8 8 8 8 8 9 9 10 10 10 11 11 11 11 11 11 11 10 10 10 9 9 9 9 9 9 8 8 8 8 8 8
11 11 11 11 11 11 10 10 10 9 9 9 9 8 8 8 8 8 8 9 9 9 9 10 9 9 9 9 9 8 8 8 8 7 7 8 8 8 8 8 9 9 9 10 10 11 11 11 11 11 11 11 11 11 10 10 9 9 9 9 9 8 8 8 7 7 7 7 6
11 11 11 10 10 10 10 9 9 9 9 8 8 8 8 8 8 8 9 9 9 9 9 9 9 9 8 8 8 7 7 7 7 7 8 8 8 8 9 9 9 10 10 11 11 11 11 12 12 12 12 11 11 10 10 10 9 9 9 8 8 8 7 7 7 6 6 6 6
10 10 10 10 10 9 9 9 8 8 8 8 8 8 8 8 8 9 9 9 9 9 9 8 8 8 7 7 7 7 7 7 7 7 8 8 9 9 9 10 11 11 11 12 12 12 12 12 12 12 12 11 11 10 10 9 9 9 8 8 7 7 7 7 6 6 6 6 6
10 10 10 9 9 9 8 8 8 8 8 8 8 8 8 8 8 8 8 8 8 8 8 8 7 7 7 7 7 7 7 7 7 8 8 9 10 10 11 11 12 12 12 12 13 13 13 13 12 11 11 11 10 10 9 9 9 8 8 8 7 7 7 7 7 6 6 6 6
10 9 9 9 8 8 8 8 8 7 7 7 8 8 8 8 8 8 8 8 8 8 7 7 7 7 6 6 6 7 7 8 8 9 9 10 10 11 12 12 12 13 13 13 13 13 13 12 12 11 11 10 10 9 9 9 8 8 8 7 7 7 7 6 7 7 7 7 7
9 9 9 8 8 8 8 7 7 7 7 8 8 8 8 8 8 8 8 8 8 7 7 7 7 6 6 6 7 7 7 8 9 9 10 11 11 12 12 12 13 13 13 13 13 13 12 12 11 11 10 10 9 9 9 8 8 8 8 7 7 7 7 7 7 7 7 7 7
9 9 8 8 8 7 7 7 7 7 8 8 8 8 8 8 8 8 8 7 7 7 7 7 6 6 6 7 7 7 8 9 9 10 11 11 12 12 12 12 12 13 13 13 13 12 12 11 11 10 10 10 9 9 9 8 8 8 8 7 7 7 7 7 7 7 7 8 8
8 8 7 7 7 7 7 7 7 7 7 8 8 8 8 8 8 8 7 7 7 7 7 6 6 6 6 7 7 8 9 9 10 11 11 12 12 12 12 12 12 12 12 13 12 12 12 11 10 10 10 9 9 9 9 8 8 8 8 8 8 8 8 8 8 8 8 8 8
8 7 7 7 7 7 7 7 7 7 7 7 7 7 7 7 7 7 7 7 7 7 6 6 6 6 6 7 7 8 9 10 10 11 12 12 12 12 12 12 12 12 12 12 12 11 11 11 10 10 9 9 9 9 8 8 8 8 8 8 8 8 8 8 8 8 8 8 8
7 7 7 7 7 7 7 7 7 7 7 7 7 7 7 7 7 7 7 7 7 6 6 6 6 6 6 7 8 9 9 10 11 11 12 12 12 12 12 12 12 12 12 11 11 11 10 10 9 9 9 8 8 8 8 8 8 8 8 8 8 8 9 9 9 8 8 8 8
7 7 7 7 7 7 7 7 7 7 7 7 7 7 7 7 7 7 7 7 6 6 6 6 6 6 6 7 8 9 9 10 11 11 12 12 12 12 12 12 12 11 11 11 10 10 9 9 9 8 8 8 8 8 8 8 8 8 8 8 8 9 9 8 8 8 8 8 8
6 6 7 7 7 7 7 7 7 7 7 7 7 7 7 7 7 7 7 6 6 6 6 6 6 6 6 7 8 8 9 10 11 11 11 11 11 11 11 11 11 11 10 10 10 9 9 9 8 8 8 8 8 8 8 8 8 8 8 9 9 8 8 8 8 8 8 8 8
6 6 6 6 6 6 6 6 6 7 7 7 7 7 7 7 7 7 7 6 6 6 5 5 6 6 6 7 7 8 9 10 10 11 11 11 11 11 11 11 11 10 10 9 9 9 9 8 8 8 8 8 8 8 8 8 8 8 8 8 8 8 8 8 8 8 8 9 9
6 6 6 6 6 6 6 6 6 6 7 7 7 7 7 7 7 7 6 6 6 6 5 5 5 6 6 7 7 8 9 9 10 11 11 11 11 11 11 11 11 10 10 9 9 9 8 8 8 8 8 8 8 8 8 8 8 8 8 8 8 8 8 9 9 9 9 9 9
5 5 6 6 6 6 6 6 6 6 7 7 7 7 7 7 7 7 6 6 6 6 6 5 5 6 6 7 7 8 9 9 10 10 11 11 11 11 11 10 10 10 9 9 9 9 8 8 8 8 8 8 8 8 8 8 8 8 8 8 9 9 9 9 9 9 9 9 9
5 5 5 5 6 6 6 6 6 6 7 7 7 7 7 7 7 7 7 6 6 6 6 6 6 6 6 7 7 8 9 9 10 10 11 11 11 11 10 10 9 9 9 9 9 8 8 8 8 8 8 8 8 8 8 8 9 9 9 9 9 9 9 9 9 9 9 9 9
5 5 5 5 5 6 6 6 6 6 6 6 7 7 7 7 7 7 7 6 6 6 6 6 6 6 7 7 7 8 9 9 10 10 10 10 10 10 10 9 9 9 9 9 8 8 8 8 8 8 8 8 8 8 9 9 9 9 9 9 9 9 9 9 9 9 9 9 8
5 5 5 5 5 5 5 6 6 6 6 6 6 7 7 7 7 7 7 7 6 6 6 6 6 7 7 7 8 8 9 9 10 10 10 10 10 10 9 9 9 9 8 8 8 8 8 8 8 8 8 9 9 9 9 9 9 9 9 9 9 9 9 9 9 9 8 8 8
4 4 5 5 5 5 5 5 6 6 6 6 6 7 7 7 7 7 7 7 7 7 6 7 7 7 7 7 8 8 8 9 10 10 10 10 9 9 9 9 8 8 8 8 8 8 8 8 8 9 9 9 9 9 9 10 9 9 9 9 9 9 8 9 9 8 8 8 8
4 4 4 5 5 5 5 5 5 6 6 6 7 7 7 7 7 7 7 7 7 7 7 7 7 7 7 8 8 8 8 9 9 10 10 9 9 9 9 9 8 8 8 8 9 9 9 9 9 9 9 9 10 10 10 9 9 9 9 9 9 9 8 8 8 8 8 8 7
Height
5770 5770 5769 5769 5769 5768 5768 5767 5766 5766 5765 5764 5764 5763 5762 5762 5761 5761 5760 5759 5759 5758 5757 5757 5756 5756 5756 5755 5755 5754 5754 5753 5753 5752 5751 5750 5750 5749 5748 5747 5746 5745 5744 5743 5742 5741 5740 5739 5738 5737 5736 5736 5735 5734 5733 5733 5732 5731 5730 5729 5727 5726 5726 5724 5723 5722 5722 5721 5720
5767 5767 5767 5766 5766 5766 5765 5765 5764 5763 5762 5761 5761 5761 5760 5760 5759 5758 5757 5757 5756 5756 5755 5755 5754 5754 5753 5753 5752 5752 5751 5751 5750 5750 5749 5748 5747 5746 5745 5745 5744 5743 5742 5741 5740 5739 5738 5737 5736 5735 5734 5733 5732 5731 5731 5731 5731 5729 5728 5726 5725 5723 5722 5721 5721 5720 5719 5718 5717
5765 5765 5764 5764 5764 5763 5763 5762 5761 5761 5760 5759 5759 5758 5758 5757 5756 5756 5755 5754 5754 5753 5753 5752 5751 5751 5751 5750 5750 5750 5749 5748 5748 5747 5746 5746 5745 5744 5743 5742 5741 5740 5739 5738 5737 5736 5736 5735 5733 5732 5732 5731 5731 5731 5730 5729 5728 5727 5726 5724 5722 5721 5720 5719 5719 5718 5717 5716 5715
5762 5762 5762 5761 5761 5761 5760 5760 5759 5758 5757 5757 5756 5756 5755 5755 5754 5753 5752 5752 5751 5751 5750 5750 5749 5749 5748 5748 5748 5747 5747 5746 5745 5745 5744 5743 5742 5741 5740 5740 5739 5737 5736 5736 5735 5734 5733 5732 5731 5730 5729 5729 5728 5727 5726 5726 5726 5725 5724 5722 5720 5719 5718 5717 5717 5716 5714 5713 5712
5760 5760 5759 5759 5758 5758 5757 5757 5756 5756 5755 5755 5754 5754 5753 5752 5751 5751 5750 5750 5749 5749 5748 5747 5747 5746 5746 5746 5745 5745 5744 5743 5743 5742 5741 5740 5740 5739 5738 5737 5736 5736 5734 5733 5733 5732 5731 5730 5729 5728 5727 5726 5726 5725 5724 5724 5724 5723 5721 5720 5718 5717 5715 5714 5713 5713 5712 5710 5709
5757 5757 5757 5756 5756 5755 5755 5754 5754 5754 5753 5753 5752 5751 5751 5750 5749 5749 5748 5747 5747 5746 5746 5745 5745 5744 5744 5743 5743 5742 5742 5741 5740 5740 5739 5738 5737 5736 5736 5735 5734 5733 5733 5731 5730 5729 5728 5727 5726 5726 5725 5724 5723 5723 5722 5722 5722 5721 5719 5717 5716 5714 5713 5711 5711 5710 5708 5707 5706
5755 5754 5754 5754 5753 5753 5752 5752 5752 5751 5751 5751 5750 5749 5749 5748 5747 5746 5746 5745 5745 5744 5744 5743 5743 5742 5741 5741 5741 5740 5739 5739 5738 5737 5736 5736 5735 5734 5733 5732 5731 5731 5730 5729 5728 5727 5726 5725 5724 5723 5723 5722 5721 5721 5720 5719 5718 5716 5716 5715 5713 5711 5710 5709 5708 5707 5706 5705 5704
5752 5751 5751 5751 5751 5751 5750 5750 5750 5749 5749 5748 5748 5747 5746 5746 5745 5745 5744 5743 5742 5742 5741 5741 5740 5740 5739 5739 5738 5737 5737 5736 5736 5735 5734 5733 5732 5732 5731 5730 5729 5728 5727 5726 5726 5725 5725 5724 5723 5722 5721 5720 5719 5718 5717 5716 5715 5713 5712 5711 5710 5709 5708 5707 5706 5705 5704 5702 5701
5749 5749 5749 5749 5748 5748 5748 5748 5747 5747 5747 5746 5746 5745 5744 5744 5743 5742 5742 5741 5741 5740 5739 5739 5738 5737 5737 5736 5736 5735 5735 5734 5733 5732 5732 5731 5731 5730 5729 5728 5727 5726 5725 5724 5723 5723 5722 5722 5721 5720 5719 5718 5717 5716 5715 5714 5713 5711 5710 5708 5707 5706 5706 5705 5703 5702 5701 5700 5699
5747 5747 5746 5746 5746 5746 5746 5746 5745 5745 5745 5744 5743 5743 5742 5741 5741 5740 5740 5739 5738 5738 5737 5736 5736 5736 5735 5734 5734 5733 5732 5731 5731 5730 5730 5729 5728 5727 5726 5725 5725 5724 5723 5722 5721 5720 5720 5719 5718 5717 5716 5716 5715 5713 5712 5712 5711 5709 5707 5706 5705 5704 5703 5702 5701 5700 5699 5697 5696
5745 5745 5745 5744 5744 5744 5744 5743 5743 5743 5742 5742 5741 5741 5740 5740 5739 5738 5737 5737 5736 5736 5735 5735 5734 5733 5733 5732 5731 5731 5730 5730 5729 5728 5727 5726 5726 5725 5724 5723 5722 5722 5721 5720 5719 5718 5717 5716 5716 5715 5714 5713 5712 5711 5710 5709 5708 5707 5705 5704 5703 5702 5701 5700 5699 5698 5696 5695 5693
5743 5743 5742 5742 5742 5742 5741 5741 5741 5741 5740 5740 5739 5738 5738 5737 5737 5736 5736 5735 5734 5734 5733 5732 5732 5731 5731 5730 5729 5729 5728 5727 5727 5726 5725 5724 5724 5723 5722 5721 5720 5720 5719 5718 5717 5716 5715 5714 5713 5712 5711 5711 5710 5709 5708 5706 5705 5704 5703 5701 5700 5699 5698 5697 5697 5695 5693 5692 5691
5741 5741 5741 5740 5740 5740 5740 5739 5739 5738 5738 5737 5737 5736 5736 5735 5735 5734 5733 5733 5732 5732 5731 5731 5730 5729 5729 5728 5727 5727 5726 5726 5725 5724 5723 5722 5722 5721 5720 5719 5718 5717 5716 5716 5714 5713 5712 5711 5711 5710 5709 5708 5707 5706 5705 5704 5703 5701 5700 5699 5698 5696 5696 5695 5694 5693 5691 5689 5688
5739 5739 5739 5738 5738 5738 5737 5737 5737 5736 5736 5735 5735 5734 5734 5733 5732 5732 5731 5731 5731 5730 5729 5729 5728 5728 5727 5726 5726 5725 5724 5723 5723 5722 5721 5721 5720 5719 5718 5717 5716 5715 5714 5713 5712 5711 5710 5709 5708 5707 5706 5705 5704 5703 5702 5701 5700 5699 5697 5696 5695 5694 5693 5692 5691 5690 5688 5687 5686
5737 5737 5736 5736 5736 5736 5736 5735 5735 5734 5734 5733 5733 5732 5732 5731 5731 5730 5730 5729 5729 5728 5728 5727 5726 5726 5725 5725 5724 5723 5722 5722 5721 5720 5720 5719 5718 5717 5716 5715 5714 5713 5712 5711 5710 5709 5708 5707 5706 5705 5704 5703 5701 5701 5699 5698 5697 5696 5695 5694 5693 5691 5690 5689 5688 5687 5686 5684 5683
5735 5735 5735 5734 5734 5734 5733 5733 5733 5732 5732 5731 5731 5731 5730 5729 5729 5728 5728 5727 5727 5726 5726 5726 5725 5724 5724 5723 5722 5721 5721 5720 5719 5718 5717 5716 5716 5715 5714 5713 5712 5711 5710 5709 5708 5706 5706 5704 5703 5702 5701 5700 5699 5698 5697 5696 5695 5694 5692 5691 5690 5689 5687 5686 5685 5684 5683 5682 5680
5733 5733 5732 5732 5732 5732 5731 5731 5731 5730 5730 5730 5729 5729 5728 5728 5727 5727 5726 5726 5725 5725 5724 5724 5723 5723 5722 5721 5721 5720 5719 5718 5717 5716 5716 5715 5714 5713 5712 5711 5710 5709 5707 5706 5705 5704 5703 5702 5701 5700 5699 5698 5696 5696 5695 5693 5692 5691 5690 5689 5687 5686 5685 5683 5682 5681 5680 5679 5677
5731 5731 5731 5731 5730 5730 5730 5729 5729 5729 5728 5728 5727 5727 5726 5726 5726 5725 5725 5724 5724 5723 5723 5722 5722 5721 5720 5720 5719 5718 5717 5716 5716 5715 5714 5713 5712 5711 5710 5709 5707 5706 5705 5704 5703 5702 5701 5700 5698 5697 5696 5695 5694 5693 5692 5691 5690 5688 5687 5686 5685 5683 5682 5681 5679 5678 5677 5675 5674
5729 5729 5729 5729 5728 5728 5728 5727 5727 5727 5726 5726 5726 5725 5725 5724 5724 5723 5723 5722 5722 5722 5721 5721 5720 5719 5719 5718 5717 5716 5715 5715 5714 5713 5712 5711 5710 5708 5707 5706 5705 5704 5703 5702 5701 5700 5698 5697 5696 5695 5694 5693 5691 5690 5689 5688 5687 5686 5684 5683 5682 5681 5680 5678 5676 5675 5674 5672 5671
5727 5727 5727 5727 5726 5726 5726 5726 5725 5725 5725 5724 5724 5723 5723 5723 5722 5722 5721 5721 5721 5720 5719 5719 5718 5717 5716 5716 5715 5714 5713 5712 5711 5711 5709 5708 5707 5706 5705 5704 5703 5702 5701 5700 5698 5697 5696 5695 5694 5693 5691 5690 5689 5688 5687 5686 5684 5683 5682 5681 5679 5678 5677 5676 5674 5673 5671 5671 5669
5725 5725 5725 5725 5725 5724 5724 5724 5723 5723 5723 5722 5722 5722 5721 5721 5721 5720 5720 5719 5719 5718 5717 5717 5716 5715 5715 5714 5713 5712 5711 5710 5709 5708 5707 5706 5705 5704 5703 5702 5701 5700 5699 5697 5696 5695 5694 5692 5691 5690 5689 5688 5686 5685 5684 5683 5682 5680 5679 5678 5676 5675 5674 5673 5671 5670 5669 5668 5666
5723 5723 5723 5723 5723 5722 5722 5722 5721 5721 5721 5721 5721 5720 5720 5719 5719 5718 5718 5717 5717 5716 5716 5715 5714 5713 5712 5712 5711 5710 5709 5708 5707 5706 5705 5704 5703 5702 5701 5700 5698 5697 5696 5695 5694 5692 5691 5690 5689 5688 5686 5685 5684 5683 5681 5680 5679 5678 5676 5675 5674 5672 5671 5670 5669 5667 5666 5665 5663
5721 5721 5721 5721 5721 5721 5720 5720 5720 5720 5719 5719 5719 5718 5718 5718 5717 5716 5716 5715 5715 5714 5713 5712 5712 5711 5710 5709 5709 5708 5707 5706 5705 5704 5703 5702 5701 5700 5699 5697 5696 5695 5694 5693 5691 5690 5689 5688 5686 5685 5684 5683 5681 5680 5679 5678 5676 5675 5674 5673 5671 5670 5669 5667 5666 5665 5663 5662 5660
5719 5719 5719 5719 5719 5719 5719 5718 5718 5718 5718 5717 5717 5716 5716 5716 5715 5715 5714 5713 5712 5712 5711 5711 5710 5709 5708 5707 5706 5706 5705 5704 5703 5702 5701 5700 5699 5697 5696 5695 5694 5693 5691 5690 5689 5687 5686 5685 5684 5682 5681 5680 5679 5677 5676 5675 5674 5673 5671 5670 5669 5667 5666 5665 5663 5662 5660 5659 5657
5718 5717 5717 5717 5717 5717 5717 5717 5716 5716 5716 5716 5715 5715 5714 5714 5713 5712 5712 5711 5711 5710 5709 5709 5708 5707 5706 5705 5705 5704 5703 5702 5701 5700 5698 5697 5696 5695 5694 5692 5691 5690 5689 5687 5686 5685 5684 5682 5681 5680 5678 5677 5676 5675 5674 5672 5671 5670 5669 5667 5666 5665 5663 5662 5660 5659 5657 5656 5654
5716 5716 5716 5716 5716 5716 5715 5715 5715 5715 5714 5714 5713 5713 5712 5712 5711 5711 5710 5709 5709 5708 5707 5707 5706 5705 5704 5703 5702 5701 5700 5699 5698 5697 5696 5695 5693 5692 5691 5690 5689 5687 5686 5685 5683 5682 5681 5680 5678 5677 5676 5674 5673 5672 5671 5670 5668 5667 5666 5665 5663 5662 5660 5659 5657 5656 5654 5653 5651
5714 5714 5714 5714 5714 5714 5714 5713 5713 5713 5712 5712 5711 5711 5710 5710 5709 5708 5708 5707 5707 5706 5705 5705 5704 5703 5702 5701 5700 5699 5698 5697 5696 5694 5693 5692 5691 5690 5688 5687 5686 5685 5683 5682 5681 5680 5678 5677 5676 5674 5673 5672 5671 5669 5668 5667 5666 5665 5663 5662 5660 5659 5657 5656 5654 5653 5651 5650 5648
5713 5713 5712 5712 5712 5712 5712 5712 5711 5711 5711 5710 5710 5709 5708 5708 5707 5706 5706 5706 5705 5704 5703 5702 5701 5701 5700 5699 5698 5696 5696 5694 5693 5692 5691 5690 5688 5687 5686 5685 5683 5682 5681 5680 5678 5677 5676 5674 5673 5671 5670 5669 5668 5667 5666 5664 5663 5662 5661 5659 5657 5656 5655 5653 5651 5650 5648 5646 5645
5711 5711 5711 5711 5711 5711 5710 5710 5710 5709 5709 5708 5708 5707 5706 5706 5705 5705 5704 5703 5703 5702 5701 5700 5699 5698 5697 5696 5696 5694 5693 5692 5691 5690 5688 5687 5686 5685 5684 5682 5681 5680 5678 5677 5676 5675 5673 5672 5671 5669 5668 5667 5666 5664 5663 5662 5661 5659 5658 5656 5655 5653 5652 5650 5649 5647 5645 5644 5642
5709 5709 5709 5709 5709 5709 5709 5708 5708 5707 5707 5706 5706 5705 5705 5704 5703 5703 5702 5701 5701 5700 5699 5698 5697 5696 5696 5695 5693 5692 5691 5690 5689 5687 5686 5685 5684 5683 5681 5680 5679 5677 5676 5675 5674 5672 5671 5670 5668 5667 5666 5664 5663 5662 5661 5659 5658 5656 5655 5654 5652 5651 5649 5647 5646 5644 5642 5641 5639
5708 5708 5708 5708 5707 5707 5707 5706 5706 5706 5705 5705 5704 5703 5703 5702 5702 5701 5700 5700 5699 5698 5697 5696 5695 5695 5694 5692 5691 5690 5689 5688 5687 5686 5684 5683 5682 5681 5679 5678 5676 5675 5674 5673 5671 5670 5669 5667 5666 5664 5663 5662 5661 5659 5658 5657 5655 5654 5652 5651 5649 5648 5646 5645 5643 5641 5639 5637 5636
5706 5706 5706 5706 5706 5705 5705 5705 5704 5704 5703 5703 5702 5702 5701 5701 5700 5699 5698 5697 5697 5696 5695 5694 5694 5693 5691 5691 5689 5688 5687 5686 5685 5683 5682 5681 5680 5678 5677 5676 5675 5673 5672 5671 5669 5668 5666 5665 5664 5662 5661 5659 5658 5657 5656 5654 5653 5651 5650 5648 5646 5645 5643 5642 5640 5638 5636 5635 5633
5705 5705 5704 5704 5704 5704 5703 5703 5702 5702 5701 5701 5701 5700 5699 5699 5698 5697 5696 5696 5695 5694 5693 5692 5691 5691 5690 5688 5687 5686 5685 5684 5682 5681 5680 5678 5677 5676 5675 5674 5672 5671 5670 5668 5667 5666 5664 5663 5661 5660 5658 5657 5656 5654 5653 5651 5650 5648 5647 5645 5644 5642 5641 5639 5637 5635 5633 5631 5629
5703 5703 5702 5702 5702 5702 5701 5701 5701 5700 5700 5699 5699 5698 5697 5697 5696 5695 5695 5694 5693 5692 5691 5690 5689 5688 5687 5686 5685 5684 5683 5681 5680 5679 5678 5676 5675 5674 5673 5671 5670 5669 5667 5666 5665 5663 5662 5660 5659 5657 5656 5655 5653 5652 5650 5649 5647 5646 5644 5642 5641 5639 5637 5636 5634 5632 5630 5628 5626
5701 5701 5701 5701 5700 5700 5700 5699 5699 5698 5698 5697 5697 5696 5696 5695 5694 5693 5693 5692 5691 5690 5689 5688 5687 5686 5685 5684 5683 5682 5681 5679 5678 5677 5676 5674 5673 5671 5671 5669 5668 5666 5665 5664 5662 5661 5659 5658 5656 5655 5653 5652 5651 5649 5647 5646 5644 5643 5641 5640 5638 5636 5635 5633 5631 5629 5627 5625 5623
5699 5699 5699 5699 5698 5698 5698 5697 5697 5696 5696 5695 5695 5694 5693 5693 5692 5691 5691 5690 5689 5688 5687 5686 5685 5684 5683 5682 5681 5680 5678 5677 5676 5675 5673 5672 5671 5669 5668 5667 5666 5664 5663 5661 5660 5658 5657 5656 5654 5652 5651 5649 5648 5646 5645 5643 5641 5640 5638 5637 5635 5633 5631 5630 5628 5626 5624 5622 5620
5697 5697 5697 5697 5696 5696 5696 5695 5695 5694 5694 5693 5693 5692 5691 5691 5690 5689 5689 5688 5687 5686 5685 5684 5683 5682 5681 5680 5679 5677 5676 5675 5674 5672 5671 5670 5668 5667 5666 5664 5663 5662 5660 5659 5657 5656 5654 5653 5651 5650 5648 5647 5645 5644 5642 5641 5639 5637 5636 5634 5632 5630 5628 5626 5625 5623 5621 5619 5616
5696 5695 5695 5695 5695 5694 5694 5693 5693 5692 5692 5691 5691 5690 5690 5689 5688 5687 5686 5686 5685 5684 5683 5682 5681 5680 5679 5678 5676 5675 5674 5673 5671 5670 5669 5667 5666 5665 5663 5662 5661 5659 5658 5656 5655 5653 5652 5650 5649 5647 5646 5644 5643 5641 5640 5638 5636 5635 5633 5631 5629 5627 5625 5623 5621 5619 5617 5615 5613
5693 5693 5693 5693 5693 5692 5692 5691 5691 5691 5690 5690 5689 5688 5688 5687 5686 5686 5685 5684 5683 5682 5681 5680 5679 5678 5677 5676 5674 5673 5672 5670 5669 5668 5666 5665 5664 5662 5661 5660 5658 5657 5655 5654 5652 5651 5649 5648 5646 5645 5643 5641 5640 5638 5637 5635 5633 5632 5630 5628 5626 5624 5622 5620 5618 5616 5614 5612 5610
5692 5691 5691 5691 5691 5691 5690 5690 5689 5689 5688 5688 5687 5686 5686 5685 5684 5683 5682 5681 5681 5680 5679 5678 5677 5676 5675 5673 5672 5671 5669 5668 5667 5665 5664 5662 5661 5660 5658 5657 5656 5654 5653 5651 5650 5648 5647 5645 5644 5642 5641 5639 5637 5636 5634 5632 5631 5629 5627 5625 5623 5621 5619 5617 5615 5613 5611 5609 5607
5690 5690 5690 5689 5689 5689 5688 5688 5687 5687 5686 5686 5685 5684 5684 5683 5682 5681 5680 5679 5679 5678 5677 5676 5675 5673 5672 5671 5670 5668 5667 5666 5664 5663 5662 5660 5659 5657 5656 5655 5653 5652 5651 5649 5647 5646 5644 5643 5641 5639 5638 5636 5634 5633 5631 5629 5628 5626 5624 5622 5620 5618 5616 5614 5612 5610 5608 5606 5603